Terminal Aerodrome Forecast
Issued by NWS

Home | Current Version | Previous Version | Text Only | Print | Product List | Glossary On
Versions: 1 2 3 4 5 6 7 8 9 10 11 12 13 14 15 16
000
FTUS45 KREV 240835 AAA
TAFMMH
TAF AMD
KMMH 240835Z 2409/2506 27011KT P6SM FEW100 BKN200
     FM241600 23018G32KT P6SM BKN100 OVC180
     FM242100 27020G34KT P6SM VCSH BKN080 OVC120
     FM250400 29016G28KT P6SM SCT080 BKN120=

USA.gov is the U.S. government's official web portal to all federal, state and local government web resources and services.